TimeCDT,TemperatureF,Dew PointF,Humidity,Sea Level PressureIn,VisibilityMPH,Wind Direction,Wind SpeedMPH,Gust SpeedMPH,PrecipitationIn,Events,Conditions,WindDirDegrees,DateUTC
1:53 AM,33.1,21.0,61,30.28,10.0,NE,4.6,-,N/A,,Clear,50,2013-04-03 06:53:00
2:53 AM,33.1,19.9,59,30.28,10.0,ENE,3.5,-,N/A,,Clear,70,2013-04-03 07:53:00
3:53 AM,30.9,19.9,64,30.27,10.0,ENE,3.5,-,N/A,,Clear,60,2013-04-03 08:53:00
4:53 AM,30.0,19.0,64,30.27,10.0,NE,6.9,-,N/A,,Clear,40,2013-04-03 09:53:00
5:53 AM,28.9,19.0,67,30.32,10.0,NE,5.8,-,N/A,,Clear,50,2013-04-03 10:53:00
6:53 AM,30.0,19.9,66,30.34,10.0,NE,8.1,-,N/A,,Clear,50,2013-04-03 11:53:00
7:53 AM,32.0,21.0,64,30.37,10.0,ENE,9.2,-,N/A,,Clear,60,2013-04-03 12:53:00
8:53 AM,36.0,21.0,55,30.37,10.0,ENE,12.7,-,N/A,,Clear,70,2013-04-03 13:53:00
9:53 AM,39.9,19.9,45,30.36,10.0,East,10.4,-,N/A,,Clear,80,2013-04-03 14:53:00
10:53 AM,43.0,21.0,42,30.36,10.0,East,11.5,-,N/A,,Clear,80,2013-04-03 15:53:00
11:53 AM,46.0,21.9,39,30.33,10.0,NE,12.7,18.4,N/A,,Clear,50,2013-04-03 16:53:00
12:53 PM,46.9,19.9,34,30.29,10.0,Variable,5.8,-,N/A,,Clear,0,2013-04-03 17:53:00
1:53 PM,50.0,21.0,32,30.27,10.0,NE,12.7,19.6,N/A,,Clear,40,2013-04-03 18:53:00
2:53 PM,51.1,21.0,31,30.26,10.0,East,10.4,17.3,N/A,,Clear,80,2013-04-03 19:53:00
3:53 PM,51.1,21.0,31,30.26,10.0,ENE,11.5,-,N/A,,Clear,70,2013-04-03 20:53:00
4:53 PM,50.0,19.9,31,30.24,10.0,ENE,11.5,-,N/A,,Clear,70,2013-04-03 21:53:00
5:53 PM,48.9,21.0,33,30.23,10.0,ENE,10.4,-,N/A,,Clear,60,2013-04-03 22:53:00
6:53 PM,48.0,19.9,33,30.24,10.0,ENE,9.2,-,N/A,,Clear,70,2013-04-03 23:53:00
7:53 PM,45.0,21.0,39,30.23,10.0,ENE,8.1,-,N/A,,Clear,70,2013-04-04 00:53:00
8:53 PM,42.1,23.0,47,30.24,10.0,ENE,6.9,-,N/A,,Clear,70,2013-04-04 01:53:00
9:53 PM,41.0,23.0,49,30.24,10.0,ENE,8.1,-,N/A,,Clear,70,2013-04-04 02:53:00
10:53 PM,39.9,24.1,53,30.22,10.0,East,8.1,-,N/A,,Clear,80,2013-04-04 03:53:00
11:53 PM,39.0,24.1,55,30.21,10.0,East,6.9,-,N/A,,Clear,80,2013-04-04 04:53:00